Weather History for Nebraska City, NE

Change the Weather History Date:

Saturday, April 5, 2014

  Actual Average (KSDA) Record (KSDA)
Temperature  
Mean Temperature 43 °F -  
Max Temperature 61 °F 58 °F 85 °F (1954)
Min Temperature 25 °F 33 °F 18 °F (1968)
Degree Days  
Heating Degree Days 22    
Moisture  
Dew Point 29 °F    
Average Humidity 62    
Maximum Humidity 100    
Minimum Humidity 26    
Precipitation  
Precipitation 0.00 in - - ()
Sea Level Pressure  
Sea Level Pressure 30.08 in    
Wind  
Wind Speed 9 mph (SSE)    
Max Wind Speed 18 mph    
Max Gust Speed 24 mph    
Visibility 10 miles    
Events      
Averages and records for this station are not official NWS values.
T = Trace of Precipitation, MM = Missing Value Source: NWS Daily Summary

Daily Weather History Graph

Daily Weather History Graph

Search for Another Location

Airport:

Trip Planner

Search our weather history database for the weather conditions in past years. The results will help you decide how hot, cold, wet, or windy it might be!

Date:

Astronomy

Apr. 05, 2014 Rise Set
Actual Time 7:00 AM CDT 7:52 PM CDT
Civil Twilight 6:32 AM CDT 8:20 PM CDT
Nautical Twilight 5:59 AM CDT 8:53 PM CDT
Astronomical Twilight 5:25 AM CDT 9:27 PM CDT
Moon 11:08 AM CDT (4/5) 1:04 AM CDT (4/5)
Length of Visible Light 13h 47m
Length of Day
12h 51m
Waxing Crescent, 34% of the Moon is Illuminated
Apr 5
Waxing Crescent
Apr 7
First Quarter
Apr 15
Full
Apr 22
Last Quarter
Apr 29
New

Hourly Weather History & Observations

Time (CDT) Temp. Windchill Dew Point Humidity Pressure Visibility Wind Dir Wind Speed Gust Speed Precip Events Conditions
12:15 AM 33.4 °F 28.1 °F 29.1 °F 84% 30.15 in 10.0 mi SE 5.8 mph - N/A   Clear
12:35 AM 32.4 °F 27.9 °F 28.6 °F 86% 30.15 in 10.0 mi SE 4.6 mph - N/A   Clear
12:55 AM 32.2 °F 28.9 °F 28.0 °F 85% 30.15 in 10.0 mi SE 3.5 mph - N/A   Clear
1:15 AM 29.5 °F 22.5 °F 26.4 °F 88% 30.16 in 10.0 mi SSE 6.9 mph - N/A   Clear
1:35 AM 30.9 °F 24.3 °F 27.0 °F 85% 30.16 in 10.0 mi SE 6.9 mph - N/A   Clear
1:55 AM 28.4 °F 22.2 °F 27.5 °F 96% 30.15 in 10.0 mi SSE 5.8 mph - N/A   Clear
2:15 AM 28.9 °F 23.9 °F 27.1 °F 93% 30.15 in 10.0 mi SSE 4.6 mph - N/A   Clear
2:35 AM 28.6 °F 22.4 °F 27.0 °F 94% 30.15 in 10.0 mi SSE 5.8 mph - N/A   Clear
2:55 AM 29.5 °F 23.4 °F 29.5 °F 100% 30.14 in 10.0 mi SSE 5.8 mph - N/A   Clear
3:15 AM 27.7 °F 22.4 °F 27.7 °F 100% 30.14 in 10.0 mi SSE 4.6 mph - N/A   Clear
3:35 AM 28.8 °F 20.9 °F 28.8 °F 100% 30.13 in 10.0 mi SE 8.1 mph - N/A   Clear
3:55 AM 28.4 °F 22.2 °F 28.0 °F 99% 30.13 in 10.0 mi SSE 5.8 mph - N/A   Clear
4:15 AM 28.0 °F 21.7 °F 27.7 °F 99% 30.13 in 10.0 mi SSE 5.8 mph - N/A   Clear
4:35 AM 27.3 °F 23.4 °F 27.3 °F 100% 30.13 in 10.0 mi South 3.5 mph - N/A   Clear
4:55 AM 27.5 °F 22.2 °F 27.5 °F 100% 30.13 in 10.0 mi South 4.6 mph - N/A   Clear
5:15 AM 26.6 °F 20.0 °F 26.6 °F 100% 30.13 in 10.0 mi South 5.8 mph - N/A   Clear
5:35 AM 25.9 °F 18.2 °F 25.9 °F 100% 30.14 in 10.0 mi South 6.9 mph - N/A   Clear
5:55 AM 26.8 °F 19.3 °F 26.4 °F 99% 30.14 in 10.0 mi South 6.9 mph - N/A   Clear
6:15 AM 26.4 °F 18.0 °F 26.2 °F 99% 30.14 in 10.0 mi South 8.1 mph - N/A   Clear
6:35 AM 26.8 °F 19.3 °F 26.4 °F 99% 30.14 in 10.0 mi South 6.9 mph - N/A   Clear
6:55 AM 26.4 °F 18.0 °F 26.2 °F 99% 30.15 in 10.0 mi South 8.1 mph - N/A   Clear
7:15 AM 26.6 °F 19.1 °F 26.2 °F 99% 30.15 in 10.0 mi South 6.9 mph - N/A   Clear
7:35 AM 26.6 °F 18.2 °F 26.6 °F 100% 30.16 in 10.0 mi South 8.1 mph - N/A   Clear
7:55 AM 28.6 °F 20.7 °F 28.4 °F 99% 30.16 in 10.0 mi South 8.1 mph - N/A   Clear
8:15 AM 29.7 °F 22.0 °F 29.3 °F 99% 30.16 in 10.0 mi South 8.1 mph - N/A   Clear
8:35 AM 31.6 °F 24.4 °F 30.9 °F 97% 30.16 in 10.0 mi South 8.1 mph - N/A   Clear
8:55 AM 32.7 °F 25.0 °F 31.6 °F 96% 30.15 in 10.0 mi SSE 9.2 mph - N/A   Clear
9:15 AM 35.2 °F 28.1 °F 32.0 °F 88% 30.16 in 10.0 mi SSE 9.2 mph - N/A   Clear
9:35 AM 37.9 °F 30.9 °F 32.4 °F 80% 30.15 in 10.0 mi SSE 10.4 mph - N/A   Clear
9:55 AM 41.0 °F 33.9 °F 32.4 °F 71% 30.15 in 10.0 mi South 12.7 mph - N/A   Clear
10:15 AM 42.3 °F 35.1 °F 32.0 °F 67% 30.15 in 10.0 mi South 13.8 mph - N/A   Clear
10:35 AM 43.9 °F 37.2 °F 32.4 °F 64% 30.14 in 10.0 mi South 13.8 mph 18.4 mph N/A   Clear
10:55 AM 45.3 °F 39.3 °F 32.0 °F 60% 30.14 in 10.0 mi South 12.7 mph - N/A   Clear
11:15 AM 46.4 °F 40.7 °F 32.2 °F 58% 30.14 in 10.0 mi South 12.7 mph - N/A   Clear
11:35 AM 47.3 °F - 32.2 °F 56% 30.13 in 10.0 mi South 11.5 mph - N/A   Clear
11:55 AM 49.1 °F - 32.4 °F 53% 30.13 in 10.0 mi SSW 11.5 mph 17.3 mph N/A   Clear
12:15 PM 51.4 °F - 32.5 °F 49% 30.12 in 10.0 mi South 10.4 mph - N/A   Clear
12:35 PM 52.3 °F - 31.6 °F 45% 30.11 in 10.0 mi South 11.5 mph 19.6 mph N/A   Clear
12:55 PM 54.3 °F - 30.2 °F 40% 30.11 in 10.0 mi South 16.1 mph 19.6 mph N/A   Clear
1:15 PM 55.4 °F - 29.7 °F 37% 30.10 in 10.0 mi South 13.8 mph 20.7 mph N/A   Clear
1:35 PM 56.5 °F - 28.2 °F 34% 30.09 in 10.0 mi South 16.1 mph 20.7 mph N/A   Clear
1:55 PM 56.8 °F - 26.6 °F 31% 30.08 in 10.0 mi South 13.8 mph 19.6 mph N/A   Clear
2:15 PM 57.9 °F - 26.4 °F 30% 30.07 in 10.0 mi South 16.1 mph 21.9 mph N/A   Clear
2:35 PM 58.1 °F - 25.5 °F 29% 30.07 in 10.0 mi SSE 13.8 mph 20.7 mph N/A   Scattered Clouds
2:55 PM 58.6 °F - 26.1 °F 29% 30.05 in 10.0 mi SSE 15.0 mph 20.7 mph N/A   Mostly Cloudy
3:15 PM 59.4 °F - 26.4 °F 28% 30.04 in 10.0 mi South 17.3 mph 23.0 mph N/A   Scattered Clouds
3:35 PM 59.4 °F - 26.6 °F 29% 30.03 in 10.0 mi SSE 11.5 mph - N/A   Clear
3:55 PM 59.5 °F - 26.6 °F 28% 30.02 in 10.0 mi South 17.3 mph 20.7 mph N/A   Clear
4:15 PM 60.8 °F - 26.6 °F 27% 30.01 in 10.0 mi SSE 17.3 mph 23.0 mph N/A   Clear
4:35 PM 61.0 °F - 27.0 °F 27% 30.00 in 10.0 mi SSE 17.3 mph - N/A   Clear
4:55 PM 61.3 °F - 26.6 °F 27% 29.99 in 10.0 mi SSE 15.0 mph 21.9 mph N/A   Clear
5:15 PM 61.2 °F - 26.2 °F 26% 29.99 in 10.0 mi SSE 15.0 mph 20.7 mph N/A   Clear
5:35 PM 61.0 °F - 26.6 °F 27% 29.98 in 10.0 mi South 17.3 mph 24.2 mph N/A   Clear
5:55 PM 59.5 °F - 25.7 °F 27% 29.98 in 10.0 mi South 17.3 mph 24.2 mph N/A   Clear
6:15 PM 59.0 °F - 26.8 °F 29% 29.98 in 10.0 mi SSE 16.1 mph 21.9 mph N/A   Clear
6:35 PM 57.6 °F - 27.9 °F 32% 29.99 in 10.0 mi South 16.1 mph - N/A   Scattered Clouds
6:55 PM 57.2 °F - 28.2 °F 33% 29.99 in 10.0 mi South 12.7 mph - N/A   Mostly Cloudy
7:15 PM 56.5 °F - 27.9 °F 33% 29.99 in 10.0 mi South 11.5 mph 18.4 mph N/A   Overcast
7:35 PM 56.1 °F - 28.2 °F 34% 29.99 in 10.0 mi SSE 11.5 mph 17.3 mph N/A   Overcast
7:55 PM 55.2 °F - 28.0 °F 35% 29.99 in 10.0 mi SSE 11.5 mph - N/A   Overcast
8:15 PM 54.5 °F - 28.2 °F 36% 29.99 in 10.0 mi South 9.2 mph - N/A   Overcast
8:35 PM 53.6 °F - 28.8 °F 39% 29.99 in 10.0 mi SSE 10.4 mph - N/A   Mostly Cloudy
8:55 PM 53.6 °F - 29.1 °F 39% 29.99 in 10.0 mi SSE 11.5 mph - N/A   Scattered Clouds
9:15 PM 52.3 °F - 29.3 °F 41% 29.99 in 10.0 mi SSE 10.4 mph - N/A   Scattered Clouds
9:35 PM 51.4 °F - 30.4 °F 44% 30.00 in 10.0 mi SSE 12.7 mph - N/A   Clear
9:55 PM 52.2 °F - 30.6 °F 44% 30.00 in 10.0 mi SSE 15.0 mph - N/A   Scattered Clouds
10:15 PM 52.0 °F - 30.9 °F 45% 30.00 in 10.0 mi South 16.1 mph - N/A   Overcast
10:35 PM 52.0 °F - 31.5 °F 46% 30.01 in 10.0 mi South 15.0 mph - N/A   Overcast
10:55 PM 51.8 °F - 31.5 °F 46% 30.00 in 10.0 mi South 16.1 mph - N/A   Overcast
11:15 PM 51.6 °F - 31.6 °F 46% 30.00 in 10.0 mi South 16.1 mph - N/A   Overcast
11:35 PM 51.4 °F - 31.8 °F 47% 30.00 in 10.0 mi South 18.4 mph 23.0 mph N/A   Overcast
11:55 PM 51.3 °F - 32.0 °F 48% 30.00 in 10.0 mi South 17.3 mph 23.0 mph N/A   Overcast